FW93366 Weather Reports


time (UTC)temp
F
wind
direction
speed
knots
gust
knots
rain 1hr
in
rain 24hr
in
rain mn
in
humidity
%
barometer
mb
20260509203043 75 251 3.5 8.7 0.00 0.00 0.00 28 1019.7
20260509201544 75 192 1.7 8.7 0.00 0.00 0.00 28 1019.7
20260509200044 74 189 2.6 7.0 0.00 0.00 0.00 29 1019.8
20260509194539 73 302 2.6 7.8 0.00 0.00 0.00 30 1020.2
20260509193047 72 207 2.6 9.6 0.00 0.00 0.00 29 1020.5
20260509191546 73 337 2.6 4.3 0.00 0.00 0.00 27 1020.6
20260509190053 72 313 1.7 7.8 0.00 0.00 0.00 29 1020.8
20260509184558 71 309 2.6 10.4 0.00 0.00 0.00 31 1021.0
20260509183040 71 0 0.0 4.3 0.00 0.00 0.00 30 1021.1
20260509181545 70 226 0.9 7.8 0.00 0.00 0.00 31 1021.3
20260509180046 70 337 1.7 4.3 0.00 0.00 0.00 33 1021.4
20260509174546 69 0 1.7 5.2 0.00 0.00 0.00 34 1021.6
20260509173039 67 35 1.7 5.2 0.00 0.00 0.00 40 1021.6
20260509171538 66 10 0.9 5.2 0.00 0.00 0.00 42 1021.6
20260509170053 65 229 0.9 3.5 0.00 0.00 0.00 49 1021.8
20260509164546 63 0 1.7 3.5 0.00 0.00 0.00 47 1021.7
20260509163054 63 0 0.0 1.7 0.00 0.00 0.00 48 1021.8
20260509161541 61 0 0.0 2.6 0.00 0.00 0.00 50 1021.8
20260509160039 60 0 0.9 3.5 0.00 0.00 0.00 56 1021.9
20260509154544 57 104 0.0 2.6 0.00 0.00 0.00 59 1021.8
20260509153045 54 0 0.0 2.6 0.00 0.00 0.00 65 1021.9
20260509151550 53 0 0.0 3.5 0.00 0.00 0.00 68 1021.9
20260509150040 52 0 0.0 0.0 0.00 0.00 0.00 68 1022.0
20260509144540 49 0 0.0 0.0 0.00 0.00 0.00 71 1022.0
20260509143051 48 0 0.0 0.0 0.00 0.00 0.00 73 1021.8
20260509141558 47 0 0.0 0.0 0.00 0.00 0.00 71 1021.7
20260509140057 46 0 0.0 0.0 0.00 0.00 0.00 71 1021.7
20260509134543 44 0 0.0 0.0 0.00 0.00 0.00 77 1021.6
20260509133047 43 0 0.0 0.0 0.00 0.00 0.00 76 1021.4
20260509131544 42 0 0.0 0.0 0.00 0.00 0.00 79 1021.3
20260509130048 42 0 0.0 0.0 0.00 0.00 0.00 78 1021.2
20260509124548 43 0 0.0 0.0 0.00 0.00 0.00 78 1021.0
20260509123052 43 0 0.0 0.0 0.00 0.00 0.00 79 1021.0
20260509121543 43 0 0.0 0.9 0.00 0.00 0.00 77 1020.9
20260509120048 45 0 0.0 1.7 0.00 0.00 0.00 73 1020.8
20260509114544 45 0 0.9 1.7 0.00 0.00 0.00 75 1020.7
20260509113103 44 0 0.0 0.9 0.00 0.00 0.00 76 1020.7
20260509111547 45 0 0.0 0.0 0.00 0.00 0.00 74 1020.7
20260509110041 45 0 0.0 0.0 0.00 0.00 0.00 72 1020.6
20260509104555 46 0 0.0 0.9 0.00 0.00 0.00 71 1020.6
20260509103056 47 0 0.0 2.6 0.00 0.00 0.00 71 1020.5
20260509101546 47 0 0.0 0.0 0.00 0.00 0.00 70 1020.5
20260509100059 47 0 0.0 0.0 0.00 0.00 0.00 66 1020.4
20260509094548 48 173 0.0 1.7 0.00 0.00 0.00 68 1020.4
20260509093043 49 0 0.0 0.0 0.00 0.00 0.00 66 1020.4
20260509091543 49 0 0.0 1.7 0.00 0.00 0.00 63 1020.4
20260509090039 51 0 0.0 0.0 0.00 0.00 0.00 58 1020.3
20260509084545 52 0 0.0 2.6 0.00 0.00 0.00 57 1020.3
20260509083043 52 0 0.0 2.6 0.00 0.00 0.00 54 1020.2
20260509081543 52 0 0.0 1.7 0.00 0.00 0.00 51 1020.3
20260509080046 52 0 0.0 0.9 0.00 0.00 0.00 55 1020.2
20260509074545 52 346 0.9 4.3 0.00 0.00 0.00 57 1020.4
20260509073047 52 333 0.0 3.5 0.00 0.00 0.00 57 1020.3
20260509071546 54 0 0.0 1.7 0.00 0.00 0.00 52 1020.1
20260509070040 55 86 1.7 5.2 0.00 0.00 0.00 50 1019.9
20260509064542 54 79 0.9 1.7 0.00 0.00 0.00 53 1020.0
20260509063043 54 0 0.0 3.5 0.00 0.00 0.00 55 1020.0
20260509061556 54 0 0.0 1.7 0.00 0.00 0.00 55 1020.0
20260509060041 55 0 0.0 0.0 0.00 0.00 0.00 57 1019.9
20260509054550 56 0 0.0 2.6 0.00 0.00 0.00 54 1019.8
20260509053056 56 0 0.0 2.6 0.00 0.00 0.00 54 1019.8
20260509051550 57 211 1.7 3.5 0.00 0.00 0.00 52 1019.7
20260509050050 57 0 0.0 2.6 0.00 0.00 0.00 52 1019.5
20260509044547 58 0 0.0 0.0 0.00 0.00 0.00 51 1019.5
20260509043039 60 198 0.9 2.6 0.00 0.00 0.00 48 1019.2
20260509041539 62 0 0.0 2.6 0.00 0.00 0.00 46 1019.2
20260509040048 66 235 1.7 7.0 0.00 0.00 0.00 35 1018.9
20260509034550 67 281 2.6 8.7 0.00 0.00 0.00 33 1018.8
20260509033041 68 271 2.6 7.0 0.00 0.00 0.00 32 1018.6
20260509031541 69 299 2.6 7.8 0.00 0.00 0.00 31 1018.5
20260509030046 70 327 4.3 8.7 0.00 0.00 0.00 29 1018.3
20260509024545 70 329 0.9 7.0 0.00 0.00 0.00 29 1018.3
20260509023043 73 0 0.9 8.7 0.00 0.00 0.00 27 1018.2
20260509021541 74 254 1.7 10.4 0.00 0.00 0.00 27 1018.1
20260509020040 74 323 2.6 9.6 0.00 0.00 0.00 26 1018.0
20260509014538 75 263 2.6 10.4 0.00 0.00 0.00 25 1018.0
20260509013046 75 285 5.2 11.3 0.00 0.00 0.00 25 1017.8
20260509011541 76 305 4.3 13.0 0.00 0.00 0.00 23 1017.8
20260509010047 76 268 5.2 13.9 0.00 0.00 0.00 21 1017.9
20260509004541 77 267 4.3 14.8 0.00 0.00 0.00 20 1017.9
20260509003041 77 276 4.3 13.0 0.00 0.00 0.00 20 1017.9
20260509001545 77 278 5.2 12.2 0.00 0.00 0.00 19 1018.0
20260509000044 77 296 7.0 13.9 0.00 0.00 0.00 19 1017.9
20260508234545 77 295 7.0 14.8 0.00 0.00 0.00 19 1018.0
20260508233040 77 254 6.1 13.9 0.00 0.00 0.00 19 1018.0
20260508231621 78 13 5.2 13.0 0.00 0.00 0.00 19 1018.2
20260508230056 77 319 6.1 17.4 0.00 0.00 0.00 20 1018.5
20260508224544 77 229 7.0 15.6 0.00 0.00 0.00 19 1018.5
20260508223044 78 265 3.5 14.8 0.00 0.00 0.00 21 1018.6
20260508221543 78 248 5.2 14.8 0.00 0.00 0.00 22 1018.6
20260508220046 77 248 7.8 17.4 0.00 0.00 0.00 19 1018.7
20260508214617 78 304 5.2 12.2 0.00 0.00 0.00 18 1018.7
20260508213049 78 355 2.6 7.8 0.00 0.00 0.00 16 1018.9
20260508211543 78 240 4.3 10.4 0.00 0.00 0.00 17 1018.9
20260508210053 78 5 5.2 8.7 0.00 0.00 0.00 18 1019.0
20260508204548 79 77 1.7 6.1 0.00 0.00 0.00 17 1019.2